This demonstration page uses our WeatherBlox Daily Observations layout. Learn more.

Left ArrowRight Arrow

Hourly Observations for March 14, 2017

Temp ( °F °C ) Dew Point ( °F °C ) Humidity (%) Winds ( mph kmh ) Pressure ( in mb ) Visibility ( mi km ) Precip ( " mm )
12:15 am 00:15 Cloudy 31 -0.6 28 -2.2 89 89 N 12 19 30.30 1026 7 11 0.00 0.00
12:52 am 00:52 Cloudy 31 -0.6 28 -2.2 89 89 NNW 12 19 30.25 1025 8 13 0.00 0.00
1:52 am 01:52 Cloudy 31 -0.6 26 -3.3 82 82 NNW 12 19 30.24 1024 9 14 0.00 0.00
2:52 am 02:52 Cloudy 31 -0.6 26 -3.3 82 82 NNW 10 17 30.25 1024 9 14 0.00 0.00
3:52 am 03:52 Cloudy 30 -1.1 23 -5 75 75 N 13 20 30.24 1024 10 16 0.00 0.00
4:52 am 04:52 Cloudy 30 -1.1 23 -5 75 75 N 13 20 30.25 1024 10 16 0.00 0.00
5:52 am 05:52 Cloudy 29 -1.7 23 -5 78 78 NNE 13 20 30.25 1025 10 16 0.00 0.00
6:52 am 06:52 Cloudy 29 -1.7 22 -5.6 75 75 N 9 15 30.26 1025 10 16 0.00 0.00
7:52 am 07:52 Cloudy 29 -1.7 21 -6.1 72 72 NNE 10 17 30.27 1025 10 16 0.00 0.00
8:52 am 08:52 Cloudy 29 -1.7 21 -6.1 72 72 N 9 15 30.31 1026 10 16 0.00 0.00
9:52 am 09:52 Cloudy 30 -1.1 21 -6.1 69 69 NNE 9 15 30.32 1027 10 16 0.00 0.00
10:52 am 10:52 Cloudy with Light Snow 30 -1.1 22 -5.6 72 72 N 7 11 30.35 1028 3 5 0.00 0.03
10:57 am 10:57 Cloudy with Light Snow 30 -1.1 23 -5 75 75 NNW 8 13 30.36 1028 1 1 0.00 0.03
11:34 am 11:34 Cloudy with Light Snow 28 -2 25 -4 86 86 NNW 8 13 30.36 1028 2 3 0.00 0.00
11:45 am 11:45 Cloudy with Light Snow 30 -1.1 25 -3.9 82 82 N 7 11 30.36 1028 2 3 0.01 0.25
11:52 am 11:52 Cloudy with Light Snow 30 -1.1 25 -3.9 82 82 N 7 11 30.35 1028 2 3 0.01 0.25
11:57 am 11:57 Cloudy with Light Snow 30 -1.1 25 -3.9 82 82 NNW 7 11 30.36 1028 2 3 0.01 0.25
12:06 pm 12:06 Cloudy with Light Snow 30 -1 25 -4 80 80 N 9 15 30.36 1028 2 3 0.00 0.00
12:21 pm 12:21 Cloudy with Light Snow 29 -1.7 25 -3.9 85 85 N 9 15 30.39 1029 1 1 0.01 0.25
12:29 pm 12:29 Cloudy with Snow 29 -1.7 25 -3.9 85 85 N 8 13 30.39 1029 1 1 0.02 0.51
12:42 pm 12:42 Cloudy with Light Snow 30 -1 25 -4 80 80 N 9 15 30.39 1029 2 3 0.00 0.00
12:50 pm 12:50 Cloudy with Light Snow 30 -1 27 -3 86 86 N 9 15 30.39 1029 3 4 0.02 0.51
12:52 pm 12:52 Cloudy with Light Snow 30 -1.1 26 -3.3 85 85 N 10 17 30.36 1028 2 3 0.02 0.51
12:55 pm 12:55 Cloudy with Light Snow 30 -1.1 25 -3.9 82 82 N 8 13 30.39 1029 2 3 0.00 0.03
1:48 pm 13:48 Cloudy with Light Snow 30 -1 27 -3 86 86 N 8 13 30.36 1028 3 4 0.00 0.00
1:52 pm 13:52 Cloudy with Light Snow 31 -0.6 26 -3.3 82 82 NNW 6 9 30.34 1028 3 5 0.01 0.25
1:58 pm 13:58 Cloudy with Light Snow 30 -1.1 25 -3.9 82 82 NNW 8 13 30.36 1028 2 3 0.00 0.03
2:23 pm 14:23 Cloudy with Light Snow 30 -1.1 26 -3.3 85 85 N 9 15 30.36 1028 1 2 0.00 0.03
2:42 pm 14:42 Cloudy with Light Snow 30 -1 25 -4 80 80 N 8 13 30.36 1028 3 4 0.00 0.00
2:52 pm 14:52 Cloudy with Light Snow 31 -0.6 26 -3.3 82 82 N 8 13 30.33 1027 2 3 0.01 0.25
3:01 pm 15:01 Cloudy with Light Snow 32 0 25 -3.9 75 75 N 10 17 30.36 1028 3 4 0.00 0.03
3:05 pm 15:05 Cloudy with Light Snow 32 0 26 -3.3 79 79 N 10 17 30.36 1028 3 5 0.00 0.03
3:23 pm 15:23 Cloudy with Light Snow 31 -0.6 26 -3.3 82 82 NNW 10 17 30.36 1028 2 3 0.00 0.03
3:35 pm 15:35 Cloudy with Light Snow 31 -0.6 25 -3.9 79 79 N 8 13 30.36 1028 2 3 0.01 0.25
3:43 pm 15:43 Cloudy with Light Snow 32 0 26 -3.3 79 79 N 12 19 30.36 1028 3 4 0.01 0.25
3:52 pm 15:52 Cloudy with Light Snow 31 -0.6 26 -3.3 82 82 N 10 17 30.33 1027 3 4 0.01 0.25
4:03 pm 16:03 Cloudy with Light Snow 30 -1 25 -4 80 80 N 9 15 30.36 1028 3 5 0.00 0.00
4:10 pm 16:10 Cloudy with Light Snow 30 -1 25 -4 80 80 N 10 17 30.36 1028 2 3 0.00 0.00
4:42 pm 16:42 Cloudy with Light Snow 30 -1 25 -4 80 80 NNW 9 15 30.36 1028 6 10 0.00 0.00
4:52 pm 16:52 Cloudy 31 -0.6 25 -3.9 79 79 NNE 12 19 30.32 1027 9 14 0.00 0.03
5:52 pm 17:52 Cloudy 31 -0.6 24 -4.4 76 76 N 9 15 30.33 1027 10 16 0.00 0.00
6:47 pm 18:47 Cloudy 30 -1 25 -4 80 80 N 10 17 30.39 1029 10 16 0.00 0.00
6:52 pm 18:52 Cloudy 31 -0.6 23 -5 72 72 N 7 11 30.35 1028 10 16 0.00 0.00
7:52 pm 19:52 Cloudy 31 -0.6 23 -5 72 72 N 6 9 30.37 1029 10 16 0.00 0.00
8:52 pm 20:52 Cloudy 30 -1.1 22 -5.6 72 72 N 6 9 30.38 1029 10 16 0.00 0.00
9:52 pm 21:52 Mostly Cloudy 29 -1.7 20 -6.7 69 69 NE 9 15 30.41 1030 10 16 0.00 0.00
10:52 pm 22:52 Partly Cloudy 28 -2.2 18 -7.8 66 66 NE 7 11 30.42 1030 10 16 0.00 0.00
11:52 pm 23:52 Clear 26 -3.3 19 -7.2 75 75 NNE 5 7 30.42 1030 10 16 0.00 0.00

Powered by AerisWeather